Location: Cerda�ola
(41.4919°N, 2.1403°E)
Time: 20:29:15
(UTC+00:00)

X-37B - Visible Passes

Search period start: 05 March 2021 00:00
Search period end: 15 March 2021 00:00
Orbit: 383 x 391 km, 45.0° (Epoch: 27 February)

Date Brightness Start Highest point End Pass type
(mag) Time Alt. Az. Time Alt. Az. Time Alt. Az.
09 Mar 3.3 19:35:59 10° SSW 19:36:15 11° SSW 19:36:15 11° SSW visible
10 Mar 2.8 18:38:59 10° SSE 18:40:24 12° SE 18:41:13 12° SE visible
10 Mar 3.8 20:13:24 10° WSW 20:13:33 11° WSW 20:13:33 11° WSW visible
11 Mar 1.2 19:15:16 10° SW 19:18:17 39° SSE 19:18:22 39° SE visible
12 Mar 2.0 19:53:15 10° WSW 19:55:23 38° W 19:55:23 38° W visible
13 Mar 0.6 18:54:55 10° WSW 18:58:06 68° SSE 18:59:58 22° ENE visible
13 Mar 3.9 20:31:46 10° W 20:32:17 14° WNW 20:32:17 14° WNW visible
14 Mar 1.0 19:33:14 10° W 19:36:24 54° NNW 19:36:45 50° NNE visible
